Location: Unspecified
(34.2910°N, 0.0000°E)
Time: 20:02:11
(UTC+00:00)

Tiangong 2 - Visible Passes

Search period start: 26 May 2019 00:00
Search period end: 05 June 2019 00:00
Orbit: 379 x 387 km, 42.8° (Epoch: 26 May)

Date Brightness Start Highest point End Pass type
(mag) Time Alt. Az. Time Alt. Az. Time Alt. Az.
26 May 3.8 19:47:21 10° NW 19:49:30 17° N 19:51:39 10° NE visible
26 May 3.2 21:24:12 10° NW 21:26:28 24° N 21:26:28 24° N visible
27 May 3.4 20:24:15 10° NW 20:26:38 19° N 20:29:01 10° ENE visible
27 May 4.2 22:00:37 10° NW 22:01:11 14° NW 22:01:11 14° NW visible
28 May 2.2 21:00:40 10° NW 21:03:36 36° NNE 21:03:43 35° NNE visible
29 May 3.0 20:00:45 10° NW 20:03:25 24° NNE 20:06:04 10° ENE visible
29 May 3.5 21:37:12 10° WNW 21:38:25 21° WNW 21:38:25 21° WNW visible
30 May 1.3 20:37:09 10° NW 20:40:15 61° NNE 20:40:59 44° E visible
31 May 2.3 19:37:11 10° NW 19:40:07 35° NNE 19:43:02 10° E visible
31 May 2.9 21:13:57 10° W 21:15:44 25° WSW 21:15:44 25° WSW visible
01 Jun 1.1 20:13:41 10° WNW 20:16:48 70° SSW 20:18:21 26° SE visible
02 Jun 3.2 20:51:04 10° W 20:53:11 17° SW 20:53:11 17° SW visible
03 Jun 2.2 19:50:23 10° WNW 19:53:16 34° SW 19:55:54 11° SSE visible
